| time (UTC) | temp F | wind direction | speed MPH | gust MPH | rain 1hr in | rain 24hr in | rain mn in | humidity % | barometer mb |
| 20260903215517 | 84 | 149 | 8.0 | 10.0 | 0.00 | 0.00 | 0.00 | 81 | 1016.3 |
| 20260903214532 | 85 | 150 | 8.0 | 10.0 | 0.00 | 0.00 | 0.00 | 81 | 1016.4 |
| 20260903213527 | 85 | 149 | 8.0 | 11.0 | 0.00 | 0.00 | 0.00 | 80 | 1016.4 |
| 20260903212522 | 85 | 147 | 8.0 | 11.0 | 0.00 | 0.00 | 0.00 | 81 | 1016.4 |
| 20260903211517 | 85 | 124 | 4.0 | 9.0 | 0.00 | 0.00 | 0.00 | 80 | 1016.4 |
| 20260903210533 | 85 | 110 | 4.0 | 6.0 | 0.00 | 0.00 | 0.00 | 80 | 1016.5 |
| 20260903205528 | 86 | 130 | 4.0 | 7.0 | 0.00 | 0.00 | 0.00 | 78 | 1016.4 |
| 20260903204523 | 86 | 123 | 4.0 | 6.0 | 0.00 | 0.00 | 0.00 | 77 | 1016.5 |
| 20260903203518 | 86 | 115 | 4.0 | 7.0 | 0.00 | 0.00 | 0.00 | 77 | 1016.5 |
| 20260903202533 | 86 | 131 | 3.0 | 5.0 | 0.00 | 0.00 | 0.00 | 76 | 1016.7 |
| 20260903201528 | 87 | 108 | 4.0 | 7.0 | 0.00 | 0.00 | 0.00 | 74 | 1016.9 |
| 20260903200524 | 88 | 119 | 4.0 | 6.0 | 0.00 | 0.00 | 0.00 | 73 | 1016.8 |
| 20260903195519 | 88 | 112 | 4.0 | 7.0 | 0.00 | 0.00 | 0.00 | 70 | 1016.8 |
| 20260903194534 | 87 | 128 | 3.0 | 6.0 | 0.00 | 0.00 | 0.00 | 70 | 1016.7 |
| 20260903193529 | 89 | 119 | 4.0 | 8.0 | 0.00 | 0.00 | 0.00 | 69 | 1017.0 |
| 20260903192529 | 88 | 109 | 5.0 | 8.0 | 0.00 | 0.00 | 0.00 | 69 | 1017.1 |
| 20260903191519 | 88 | 133 | 3.0 | 6.0 | 0.00 | 0.00 | 0.00 | 68 | 1017.0 |
| 20260903190534 | 88 | 131 | 3.0 | 6.0 | 0.00 | 0.00 | 0.00 | 68 | 1017.1 |
| 20260903185530 | 88 | 130 | 4.0 | 7.0 | 0.00 | 0.00 | 0.00 | 68 | 1017.3 |
| 20260903184525 | 88 | 128 | 4.0 | 9.0 | 0.00 | 0.00 | 0.00 | 70 | 1017.3 |
| 20260903183520 | 88 | 121 | 4.0 | 6.0 | 0.00 | 0.00 | 0.00 | 69 | 1017.5 |
| 20260903182535 | 88 | 102 | 4.0 | 6.0 | 0.00 | 0.00 | 0.00 | 73 | 1017.4 |
| 20260903181530 | 88 | 130 | 5.0 | 9.0 | 0.00 | 0.00 | 0.00 | 74 | 1017.5 |
| 20260903180525 | 87 | 162 | 7.0 | 11.0 | 0.00 | 0.00 | 0.00 | 74 | 1017.6 |
| 20260903175520 | 88 | 165 | 7.0 | 11.0 | 0.00 | 0.00 | 0.00 | 74 | 1017.6 |
| 20260903174537 | 88 | 149 | 8.0 | 11.0 | 0.00 | 0.00 | 0.00 | 72 | 1017.6 |
| 20260903173531 | 88 | 150 | 8.0 | 10.0 | 0.00 | 0.00 | 0.00 | 73 | 1017.7 |
| 20260903172526 | 88 | 163 | 7.0 | 11.0 | 0.00 | 0.00 | 0.00 | 73 | 1017.7 |
| 20260903171522 | 88 | 155 | 8.0 | 11.0 | 0.00 | 0.00 | 0.00 | 73 | 1017.8 |
| 20260903170517 | 88 | 141 | 9.0 | 11.0 | 0.00 | 0.00 | 0.00 | 73 | 1017.8 |
| 20260903165533 | 88 | 160 | 7.0 | 10.0 | 0.00 | 0.00 | 0.00 | 73 | 1018.0 |
| 20260903164528 | 88 | 157 | 7.0 | 10.0 | 0.00 | 0.00 | 0.00 | 72 | 1017.9 |
| 20260903163523 | 88 | 157 | 7.0 | 11.0 | 0.00 | 0.00 | 0.00 | 73 | 1017.9 |
| 20260903162518 | 88 | 157 | 8.0 | 11.0 | 0.00 | 0.00 | 0.00 | 71 | 1017.9 |
| 20260903161533 | 87 | 158 | 7.0 | 9.0 | 0.00 | 0.00 | 0.00 | 74 | 1018.1 |
| 20260903160528 | 88 | 153 | 8.0 | 10.0 | 0.00 | 0.00 | 0.00 | 74 | 1018.2 |
| 20260903155523 | 88 | 156 | 8.0 | 11.0 | 0.00 | 0.00 | 0.00 | 74 | 1018.3 |
| 20260903154518 | 88 | 148 | 8.0 | 9.0 | 0.00 | 0.00 | 0.00 | 74 | 1018.4 |
| 20260903153534 | 88 | 151 | 8.0 | 11.0 | 0.00 | 0.00 | 0.00 | 76 | 1018.4 |
| 20260903152529 | 87 | 149 | 8.0 | 11.0 | 0.00 | 0.00 | 0.00 | 76 | 1018.3 |
| 20260903151524 | 87 | 155 | 7.0 | 10.0 | 0.00 | 0.00 | 0.00 | 76 | 1018.2 |
| 20260903150519 | 86 | 195 | 6.0 | 9.0 | 0.00 | 0.00 | 0.00 | 79 | 1018.2 |
| 20260903145534 | 87 | 223 | 2.0 | 5.0 | 0.00 | 0.00 | 0.00 | 77 | 1018.1 |
| 20260903144530 | 87 | 219 | 3.0 | 5.0 | 0.00 | 0.00 | 0.00 | 75 | 1018.0 |
| 20260903143525 | 87 | 235 | 1.0 | 2.0 | 0.00 | 0.00 | 0.00 | 76 | 1018.0 |
| 20260903142520 | 87 | 208 | 1.0 | 2.0 | 0.00 | 0.00 | 0.00 | 75 | 1018.1 |
| 20260903141535 | 86 | 183 | 4.0 | 6.0 | 0.00 | 0.00 | 0.00 | 78 | 1017.9 |
| 20260903140530 | 86 | 186 | 5.0 | 6.0 | 0.00 | 0.00 | 0.00 | 79 | 1017.9 |
| 20260903135525 | 86 | 190 | 5.0 | 6.0 | 0.00 | 0.00 | 0.00 | 79 | 1017.8 |
| 20260903134520 | 85 | 189 | 4.0 | 6.0 | 0.00 | 0.00 | 0.00 | 82 | 1017.8 |
| 20260903133536 | 84 | 182 | 5.0 | 6.0 | 0.00 | 0.00 | 0.00 | 84 | 1017.8 |
| 20260903132531 | 83 | 185 | 4.0 | 6.0 | 0.00 | 0.00 | 0.00 | 85 | 1017.8 |
| 20260903131526 | 82 | 179 | 4.0 | 8.0 | 0.00 | 0.00 | 0.00 | 89 | 1017.8 |
| 20260903130521 | 81 | 181 | 4.0 | 7.0 | 0.00 | 0.00 | 0.00 | 92 | 1018.0 |
| 20260903125536 | 79 | 177 | 4.0 | 6.0 | 0.00 | 0.00 | 0.00 | 97 | 1018.1 |
| 20260903124531 | 78 | 185 | 3.0 | 5.0 | 0.00 | 0.00 | 0.00 | 97 | 1018.1 |
| 20260903123526 | 78 | 185 | 5.0 | 5.0 | 0.00 | 0.00 | 0.00 | 97 | 1018.0 |
| 20260903122521 | 77 | 181 | 5.0 | 5.0 | 0.00 | 0.00 | 0.00 | 97 | 1018.0 |
| 20260903121516 | 77 | 182 | 5.0 | 5.0 | 0.00 | 0.00 | 0.00 | 97 | 1018.0 |
| 20260903120532 | 76 | 185 | 5.0 | 6.0 | 0.00 | 0.00 | 0.00 | 97 | 1018.1 |
| 20260903115527 | 76 | 178 | 5.0 | 6.0 | 0.00 | 0.00 | 0.00 | 97 | 1018.0 |
| 20260903114522 | 76 | 184 | 4.0 | 5.0 | 0.00 | 0.00 | 0.00 | 97 | 1017.9 |
| 20260903113517 | 75 | 182 | 4.0 | 5.0 | 0.00 | 0.00 | 0.00 | 97 | 1017.8 |
| 20260903112533 | 75 | 182 | 5.0 | 5.0 | 0.00 | 0.00 | 0.00 | 97 | 1017.7 |
| 20260903111528 | 75 | 181 | 5.0 | 6.0 | 0.00 | 0.00 | 0.00 | 97 | 1017.4 |
| 20260903110523 | 75 | 181 | 4.0 | 5.0 | 0.00 | 0.00 | 0.00 | 97 | 1017.3 |
| 20260903105518 | 75 | 180 | 5.0 | 5.0 | 0.00 | 0.00 | 0.00 | 97 | 1017.2 |
| 20260903104533 | 75 | 179 | 4.0 | 5.0 | 0.00 | 0.00 | 0.00 | 97 | 1017.1 |
| 20260903103529 | 75 | 180 | 5.0 | 6.0 | 0.00 | 0.00 | 0.00 | 97 | 1017.0 |
| 20260903102524 | 75 | 180 | 5.0 | 6.0 | 0.00 | 0.00 | 0.00 | 97 | 1016.9 |
| 20260903101519 | 76 | 180 | 4.0 | 5.0 | 0.00 | 0.00 | 0.00 | 97 | 1017.0 |
| 20260903100534 | 76 | 178 | 5.0 | 6.0 | 0.00 | 0.00 | 0.00 | 97 | 1017.1 |
| 20260903095530 | 76 | 187 | 4.0 | 5.0 | 0.00 | 0.00 | 0.00 | 97 | 1017.0 |
| 20260903094525 | 76 | 180 | 4.0 | 6.0 | 0.00 | 0.00 | 0.00 | 96 | 1017.0 |
| 20260903093520 | 76 | 180 | 6.0 | 7.0 | 0.00 | 0.00 | 0.00 | 96 | 1016.9 |
| 20260903092535 | 76 | 182 | 5.0 | 6.0 | 0.00 | 0.00 | 0.00 | 96 | 1016.9 |
| 20260903091531 | 76 | 178 | 4.0 | 5.0 | 0.00 | 0.00 | 0.00 | 96 | 1016.8 |
| 20260903090525 | 76 | 175 | 4.0 | 6.0 | 0.00 | 0.00 | 0.00 | 96 | 1016.7 |
| 20260903085521 | 76 | 181 | 4.0 | 6.0 | 0.00 | 0.00 | 0.00 | 96 | 1016.5 |
| 20260903084516 | 77 | 179 | 5.0 | 7.0 | 0.00 | 0.00 | 0.00 | 96 | 1016.6 |
| 20260903083532 | 77 | 183 | 6.0 | 7.0 | 0.00 | 0.00 | 0.00 | 95 | 1016.6 |
| 20260903082526 | 77 | 186 | 4.0 | 6.0 | 0.00 | 0.00 | 0.00 | 95 | 1016.7 |
| 20260903081522 | 77 | 182 | 3.0 | 6.0 | 0.00 | 0.00 | 0.00 | 95 | 1016.7 |
| 20260903080517 | 77 | 175 | 5.0 | 7.0 | 0.00 | 0.00 | 0.00 | 95 | 1016.6 |
| 20260903075532 | 77 | 183 | 5.0 | 7.0 | 0.00 | 0.00 | 0.00 | 95 | 1016.5 |
| 20260903074527 | 77 | 181 | 4.0 | 4.0 | 0.00 | 0.00 | 0.00 | 95 | 1016.5 |
| 20260903073523 | 77 | 182 | 4.0 | 4.0 | 0.00 | 0.00 | 0.00 | 94 | 1016.3 |
| 20260903072518 | 78 | 182 | 4.0 | 4.0 | 0.00 | 0.00 | 0.00 | 94 | 1016.2 |
| 20260903071533 | 78 | 183 | 4.0 | 4.0 | 0.00 | 0.00 | 0.00 | 94 | 1016.1 |
| 20260903070528 | 78 | 184 | 4.0 | 5.0 | 0.00 | 0.00 | 0.00 | 94 | 1016.2 |
| 20260903065523 | 78 | 182 | 4.0 | 5.0 | 0.00 | 0.00 | 0.00 | 93 | 1016.2 |
| 20260903064518 | 78 | 181 | 4.0 | 5.0 | 0.00 | 0.00 | 0.00 | 93 | 1016.1 |
| 20260903063534 | 78 | 183 | 4.0 | 5.0 | 0.00 | 0.00 | 0.00 | 93 | 1016.1 |
| 20260903062529 | 79 | 186 | 4.0 | 5.0 | 0.00 | 0.00 | 0.00 | 92 | 1016.2 |
| 20260903061524 | 79 | 186 | 5.0 | 5.0 | 0.00 | 0.00 | 0.00 | 92 | 1016.3 |
| 20260903060519 | 79 | 185 | 4.0 | 5.0 | 0.00 | 0.00 | 0.00 | 91 | 1016.5 |
| 20260903055534 | 79 | 185 | 4.0 | 5.0 | 0.00 | 0.00 | 0.00 | 91 | 1016.6 |
| 20260903054530 | 79 | 189 | 5.0 | 6.0 | 0.00 | 0.00 | 0.00 | 91 | 1016.5 |
| 20260903053524 | 79 | 186 | 5.0 | 5.0 | 0.00 | 0.00 | 0.00 | 91 | 1016.6 |
| 20260903052520 | 79 | 183 | 5.0 | 5.0 | 0.00 | 0.00 | 0.00 | 90 | 1016.6 |
| 20260903051535 | 79 | 180 | 4.0 | 5.0 | 0.00 | 0.00 | 0.00 | 90 | 1016.5 |
| 20260903050530 | 79 | 185 | 4.0 | 5.0 | 0.00 | 0.00 | 0.00 | 90 | 1016.4 |
| 20260903045526 | 79 | 183 | 4.0 | 5.0 | 0.00 | 0.00 | 0.00 | 89 | 1016.6 |
| 20260903044521 | 80 | 185 | 4.0 | 5.0 | 0.00 | 0.00 | 0.00 | 88 | 1016.5 |
| 20260903043536 | 80 | 185 | 4.0 | 5.0 | 0.00 | 0.00 | 0.00 | 86 | 1016.5 |
| 20260903042531 | 81 | 181 | 5.0 | 7.0 | 0.00 | 0.00 | 0.00 | 86 | 1016.5 |
| 20260903041526 | 81 | 180 | 4.0 | 5.0 | 0.00 | 0.00 | 0.00 | 85 | 1016.4 |
| 20260903040521 | 81 | 183 | 5.0 | 6.0 | 0.00 | 0.00 | 0.00 | 83 | 1016.3 |
| 20260903035536 | 81 | 182 | 5.0 | 7.0 | 0.00 | 0.00 | 0.00 | 83 | 1016.3 |
| 20260903034531 | 82 | 186 | 5.0 | 6.0 | 0.00 | 0.00 | 0.00 | 82 | 1016.4 |
| 20260903033526 | 82 | 186 | 5.0 | 6.0 | 0.00 | 0.00 | 0.00 | 81 | 1016.4 |
| 20260903032521 | 82 | 185 | 6.0 | 8.0 | 0.00 | 0.00 | 0.00 | 82 | 1016.2 |
| 20260903031516 | 82 | 185 | 5.0 | 8.0 | 0.00 | 0.00 | 0.00 | 84 | 1016.4 |
| 20260903030531 | 82 | 187 | 6.0 | 8.0 | 0.00 | 0.00 | 0.00 | 84 | 1016.6 |
| 20260903025527 | 82 | 187 | 5.0 | 6.0 | 0.00 | 0.00 | 0.00 | 83 | 1017.0 |
| 20260903024521 | 82 | 186 | 5.0 | 7.0 | 0.00 | 0.00 | 0.00 | 83 | 1017.2 |
| 20260903023516 | 82 | 185 | 5.0 | 6.0 | 0.00 | 0.00 | 0.00 | 83 | 1017.4 |
| 20260903022532 | 82 | 187 | 5.0 | 7.0 | 0.00 | 0.00 | 0.00 | 82 | 1017.7 |
| 20260903021527 | 82 | 187 | 5.0 | 6.0 | 0.00 | 0.00 | 0.00 | 83 | 1017.8 |
| 20260903020522 | 82 | 188 | 5.0 | 7.0 | 0.00 | 0.00 | 0.00 | 84 | 1017.9 |
| 20260903015517 | 82 | 186 | 5.0 | 7.0 | 0.00 | 0.00 | 0.00 | 83 | 1017.9 |
| 20260903014532 | 82 | 182 | 5.0 | 6.0 | 0.00 | 0.00 | 0.00 | 82 | 1017.7 |
| 20260903013527 | 82 | 187 | 5.0 | 6.0 | 0.00 | 0.00 | 0.00 | 82 | 1017.7 |
| 20260903012522 | 82 | 185 | 5.0 | 6.0 | 0.00 | 0.00 | 0.00 | 83 | 1017.6 |
| 20260903011517 | 82 | 185 | 5.0 | 7.0 | 0.00 | 0.00 | 0.00 | 84 | 1017.4 |
| 20260903010533 | 82 | 187 | 5.0 | 6.0 | 0.00 | 0.00 | 0.00 | 83 | 1017.3 |
| 20260903005528 | 82 | 184 | 5.0 | 6.0 | 0.00 | 0.00 | 0.00 | 83 | 1017.1 |
| 20260903004523 | 82 | 184 | 6.0 | 7.0 | 0.00 | 0.00 | 0.00 | 83 | 1017.0 |
| 20260903003518 | 82 | 187 | 5.0 | 6.0 | 0.00 | 0.00 | 0.00 | 84 | 1017.0 |
| 20260903002534 | 82 | 185 | 5.0 | 6.0 | 0.00 | 0.00 | 0.00 | 84 | 1016.9 |
| 20260903001529 | 82 | 187 | 5.0 | 6.0 | 0.00 | 0.00 | 0.00 | 83 | 1016.7 |
| 20260903000524 | 82 | 185 | 5.0 | 6.0 | 0.00 | 0.00 | 0.00 | 83 | 1016.6 |
| 20260902235519 | 82 | 186 | 5.0 | 7.0 | 0.00 | 0.00 | 0.00 | 83 | 1016.6 |
| 20260902234534 | 83 | 186 | 5.0 | 6.0 | 0.00 | 0.00 | 0.00 | 82 | 1016.5 |
| 20260902233529 | 83 | 186 | 5.0 | 6.0 | 0.00 | 0.00 | 0.00 | 81 | 1016.4 |
| 20260902232524 | 83 | 184 | 5.0 | 7.0 | 0.00 | 0.00 | 0.00 | 81 | 1016.6 |
| 20260902231519 | 84 | 189 | 5.0 | 7.0 | 0.00 | 0.00 | 0.00 | 80 | 1016.6 |
| 20260902230535 | 84 | 187 | 5.0 | 8.0 | 0.00 | 0.00 | 0.00 | 78 | 1016.6 |
| 20260902225530 | 84 | 187 | 5.0 | 7.0 | 0.00 | 0.00 | 0.00 | 77 | 1016.7 |
| 20260902224525 | 84 | 187 | 6.0 | 9.0 | 0.00 | 0.00 | 0.00 | 75 | 1016.6 |
| 20260902223521 | 84 | 191 | 5.0 | 7.0 | 0.00 | 0.00 | 0.00 | 76 | 1016.6 |
| 20260902222536 | 85 | 188 | 5.0 | 7.0 | 0.00 | 0.00 | 0.00 | 77 | 1016.6 |
| 20260902221531 | 85 | 184 | 6.0 | 9.0 | 0.00 | 0.00 | 0.00 | 76 | 1016.4 |
| 20260902220526 | 85 | 190 | 6.0 | 9.0 | 0.00 | 0.00 | 0.00 | 74 | 1016.2 |